EW7899 Weather Reports


Display with metric or nautical units.
time (UTC)temp
F
wind
direction
speed
MPH
gust
MPH
rain 1hr
in
rain 24hr
in
rain mn
in
humidity
%
barometer
mb
20260508181519 49 359 8.0 16.0 0.00 0.00 0.00 44 1007.3
20260508180014 49 359 4.0 15.0 0.00 0.00 0.00 44 1007.1
20260508174512 47 283 0.0 13.0 0.00 0.00 0.00 48 1007.2
20260508173011 48 314 11.0 18.0 0.00 0.00 0.00 45 1007.2
20260508171514 48 316 7.0 13.0 0.00 0.00 0.00 46 1007.2
20260508170011 48 287 6.0 13.0 0.00 0.00 0.00 48 1007.1
20260508164508 48 297 11.0 16.0 0.00 0.00 0.00 47 1007.1
20260508163012 48 341 7.0 13.0 0.00 0.00 0.00 48 1007.2
20260508161505 47 298 8.0 20.0 0.00 0.00 0.00 54 1007.3
20260508160004 46 305 4.0 14.0 0.00 0.00 0.00 56 1007.4
20260508154505 46 359 11.0 18.0 0.00 0.00 0.00 56 1007.3
20260508153004 46 257 6.0 12.0 0.00 0.00 0.00 54 1007.3
20260508151505 46 359 8.0 14.0 0.00 0.00 0.00 52 1007.1
20260508150005 47 315 12.0 16.0 0.00 0.00 0.00 52 1007.0
20260508144501 46 318 4.0 20.0 0.00 0.00 0.00 56 1007.0
20260508143002 46 291 10.0 15.0 0.00 0.00 0.00 53 1007.0
20260508141621 45 285 7.0 13.0 0.00 0.00 0.00 57 1007.1
20260508134618 47 320 11.0 20.0 0.00 0.00 0.00 55 1007.2
20260508133100 46 303 9.0 15.0 0.00 0.00 0.00 61 1007.3
20260508131552 45 359 9.0 21.0 0.00 0.00 0.00 62 1007.4
20260508130049 44 292 5.0 10.0 0.00 0.00 0.00 69 1007.3
20260508124552 42 287 0.0 5.0 0.00 0.00 0.00 71 1007.5
20260508123047 41 208 0.0 5.0 0.00 0.00 0.00 75 1007.6
20260508121539 41 322 2.0 7.0 0.00 0.00 0.00 75 1007.6
20260508120036 40 231 0.0 5.0 0.00 0.00 0.00 78 1007.5
20260508114536 40 308 0.0 5.0 0.00 0.00 0.00 78 1007.5
20260508113046 39 253 0.0 4.0 0.00 0.00 0.00 81 1007.3
20260508111528 39 170 0.0 5.0 0.00 0.00 0.00 83 1007.1
20260508110027 38 345 0.0 4.0 0.00 0.00 0.00 84 1007.0
20260508104525 38 304 0.0 0.0 0.00 0.00 0.00 84 1006.8
20260508103032 38 295 0.0 4.0 0.00 0.00 0.00 85 1006.6
20260508101529 37 297 0.0 4.0 0.00 0.00 0.00 85 1006.5
20260508100021 37 147 0.0 1.0 0.00 0.00 0.00 86 1006.5
20260508094520 37 311 0.0 1.0 0.00 0.00 0.00 84 1006.3
20260508093020 37 269 0.0 0.0 0.00 0.00 0.00 84 1006.1
20260508091532 37 296 0.0 0.0 0.00 0.00 0.00 85 1006.1
20260508090030 37 297 0.0 0.0 0.00 0.00 0.00 84 1005.9
20260508084518 37 297 0.0 0.0 0.00 0.00 0.00 84 1006.0
20260508083018 37 297 0.0 0.0 0.00 0.00 0.00 85 1005.9
20260508081518 37 359 0.0 0.0 0.00 0.00 0.00 85 1006.0
20260508080024 37 272 0.0 4.0 0.00 0.00 0.00 86 1005.8
20260508074526 36 343 0.0 0.0 0.00 0.00 0.00 87 1005.8
20260508073015 36 185 0.0 6.0 0.00 0.00 0.00 87 1005.7
20260508071523 36 217 0.0 5.0 0.00 0.00 0.00 87 1005.6
20260508070014 36 229 0.0 1.0 0.00 0.00 0.00 87 1005.8
20260508064516 35 359 0.0 4.0 0.00 0.00 0.00 88 1005.7
20260508063013 35 359 0.0 0.0 0.00 0.00 0.00 87 1005.8
20260508061511 35 359 0.0 0.0 0.00 0.00 0.00 86 1005.8
20260508060011 35 295 0.0 0.0 0.00 0.00 0.00 85 1006.0
20260508054509 36 294 0.0 0.0 0.00 0.00 0.00 85 1006.1
20260508053005 36 359 0.0 0.0 0.00 0.00 0.00 84 1006.1
20260508051503 37 275 0.0 2.0 0.00 0.00 0.00 85 1006.2
20260508050001 37 275 0.0 1.0 0.00 0.00 0.00 84 1006.2
20260508044605 37 246 0.0 2.0 0.00 0.00 0.00 83 1006.1
20260508043107 38 187 0.0 5.0 0.00 0.00 0.00 83 1006.1
20260508041552 38 156 0.0 0.0 0.00 0.00 0.00 83 1006.1
20260508040051 38 76 0.0 0.0 0.00 0.00 0.00 83 1006.2
20260508034550 38 335 0.0 0.0 0.00 0.00 0.00 84 1006.2
20260508033049 38 334 0.0 0.0 0.00 0.00 0.00 83 1006.3
20260508031549 37 334 0.0 0.0 0.00 0.00 0.00 83 1006.3
20260508030048 37 335 0.0 0.0 0.00 0.00 0.00 83 1006.3
20260508024548 37 334 0.0 0.0 0.00 0.00 0.00 84 1006.2
20260508023048 37 334 0.0 0.0 0.00 0.00 0.00 82 1006.3
20260508021550 37 335 0.0 0.0 0.00 0.00 0.00 82 1006.3
20260508020046 37 334 0.0 0.0 0.00 0.00 0.00 79 1006.2
20260508014543 38 359 0.0 0.0 0.00 0.00 0.00 78 1006.2
20260508013043 39 335 0.0 0.0 0.00 0.00 0.00 75 1006.1
20260508011542 40 334 0.0 0.0 0.00 0.00 0.00 74 1006.0
20260508010040 41 334 0.0 0.0 0.00 0.00 0.00 71 1006.0
20260508004542 42 334 0.0 0.0 0.00 0.00 0.00 65 1005.8
20260508003040 43 335 0.0 0.0 0.00 0.00 0.00 64 1005.6
20260508001540 44 335 0.0 0.0 0.00 0.00 0.00 66 1005.5
20260508000038 45 359 0.0 0.0 0.00 0.00 0.00 66 1005.4
20260507234538 46 316 0.0 4.0 0.00 0.00 0.00 63 1005.4
20260507233040 47 300 0.0 5.0 0.00 0.00 0.00 60 1005.3
20260507231537 48 302 2.0 10.0 0.00 0.00 0.00 50 1005.3
20260507230037 48 359 2.0 13.0 0.00 0.00 0.00 47 1005.2
20260507224537 49 318 4.0 13.0 0.00 0.00 0.00 46 1005.2
20260507223036 49 328 5.0 12.0 0.00 0.00 0.00 45 1005.2
20260507221536 49 328 3.0 14.0 0.00 0.00 0.00 44 1005.3
20260507220036 49 305 4.0 14.0 0.00 0.01 0.00 48 1005.3
20260507214543 49 280 4.0 14.0 0.00 0.01 0.00 47 1005.2
20260507213035 49 312 6.0 20.0 0.00 0.01 0.00 44 1005.2
20260507211533 49 359 6.0 15.0 0.00 0.01 0.00 46 1005.1
20260507210048 50 316 10.0 24.0 0.00 0.01 0.00 42 1005.0
20260507204532 49 332 9.0 14.0 0.00 0.01 0.00 47 1005.0
20260507203035 49 253 8.0 26.0 0.00 0.01 0.00 46 1005.1
20260507201530 49 308 11.0 18.0 0.00 0.01 0.00 45 1005.1
20260507200035 49 315 7.0 13.0 0.00 0.02 0.00 46 1005.2
20260507194547 49 359 0.0 15.0 0.00 0.02 0.00 49 1005.3
20260507193033 49 305 7.0 13.0 0.00 0.02 0.00 44 1005.4
20260507191528 50 280 7.0 13.0 0.00 0.02 0.00 43 1005.4
20260507190028 51 264 9.0 22.0 0.00 0.03 0.00 42 1005.6
20260507184530 50 359 7.0 23.0 0.00 0.03 0.00 43 1005.6
20260507183034 50 315 11.0 25.0 0.00 0.03 0.00 45 1005.4